Sussex, Wisconsin, United States (53089)
Lat: 43.13N, Lon: 88.22W
Wx Zone: WIZ065
Local Info
Past Weather Observations for Today

NOTE: This archive is for the closest National Weather Service station to Sussex. Information may differ from the station used for current weather conditions.

Click here for Long-term Archive

Time Weather Temperature Dewpoint Humidity Pressure Winds Precip Visibility
21:55
Overcast
28°F / -2°C 23°F / -5°C 80% 29.83 in
(1010 mb)
SSW 11.5 mph
(SSW 19 kph)
- 10SM
21:35
Overcast
28°F / -2°C 23°F / -5°C 80% 29.8 in
(1009 mb)
SSW 10.4 mph
(SSW 17 kph)
- 10SM
21:15
Overcast
28°F / -2°C 23°F / -5°C 80% 29.8 in
(1009 mb)
SSW 11.5 mph
(SSW 19 kph)
- 10SM
20:55
Overcast
28°F / -2°C 23°F / -5°C 80% 29.77 in
(1008 mb)
SSW 10.4 mph
(SSW 17 kph)
- 10SM
20:45
Overcast
27°F / -3°C 21°F / -6°C 80% 29.77 in
(1008 mb)
SSW 9.2 mph
(SSW 15 kph)
- 10SM
20:35
Overcast
28°F / -2°C 23°F / -5°C 80% 29.77 in
(1008 mb)
SSW 8.1 mph
(SSW 13 kph)
- 10SM
20:15
Mostly Cloudy
28°F / -2°C 21°F / -6°C 74% 29.77 in
(1008 mb)
SSW 8.1 mph
(SSW 13 kph)
- 10SM
19:45
Overcast
27°F / -3°C 21°F / -6°C 80% 29.77 in
(1008 mb)
SSW 9.2 mph
(SSW 15 kph)
- 10SM
18:45
Overcast
28°F / -2°C 21°F / -6°C 74% 29.74 in
(1007 mb)
W 11.5 mph
(W 19 kph)
- 10SM
17:45
Overcast
28°F / -2°C 23°F / -5°C 80% 29.68 in
(1005 mb)
W 11.5 mph
(W 19 kph)
- 10SM
16:45
Overcast
28°F / -2°C 25°F / -4°C 86% 29.65 in
(1004 mb)
W 16.1 mph
(W 26 kph)
- 10SM
15:45
Overcast
28°F / -2°C 25°F / -4°C 86% 29.62 in
(1003 mb)
W 16.1 mph
(W 26 kph)
- 10SM
14:45
Overcast
28°F / -2°C 27°F / -3°C 93% 29.59 in
(1002 mb)
SSW 11.5 mph
(SSW 19 kph)
-
13:45
Overcast
28°F / -2°C 27°F / -3°C 93% 29.59 in
(1002 mb)
SW 11.5 mph
(SW 19 kph)
- 5 BR
12:45
Overcast
Fog And Mist
28°F / -2°C 27°F / -3°C 93% 29.59 in
(1002 mb)
SW 11.5 mph
(SW 19 kph)
- 1 3/4SM
11:45
Overcast
Light Snow
28°F / -2°C 27°F / -3°C 93% 29.62 in
(1003 mb)
S 11.5 mph
(S 19 kph)
- 1 1/2SM
10:45
Overcast
Light Snow
27°F / -3°C 27°F / -3°C 100% 29.65 in
(1004 mb)
SSE 8.1 mph
(SSE 13 kph)
- 1SM
09:45
Overcast
Light Snow
25°F / -4°C 23°F / -5°C 93% 29.68 in
(1005 mb)
SE 11.5 mph
(SE 19 kph)
- 1 1/2SM
08:45
Overcast
Snow
23°F / -5°C 21°F / -6°C 93% 29.77 in
(1008 mb)
SE 11.5 mph
(SE 19 kph)
- 1SM
07:45
Overcast
Snow
23°F / -5°C 21°F / -6°C 93% 29.77 in
(1008 mb)
SE 13.8 mph
(SE 22 kph)
- 1/2SM
06:45
Mostly Cloudy
Snow
23°F / -5°C 19°F / -7°C 86% 29.86 in
(1011 mb)
SSE 10.4 mph
(SSE 17 kph)
- 1/2SM
05:45
Mostly Cloudy
Snow
23°F / -5°C 19°F / -7°C 86% 29.95 in
(1014 mb)
SSE 10.4 mph
(SSE 17 kph)
- 1/2SM
04:35
Overcast
25°F / -4°C 16°F / -9°C 69% 30.01 in
(1016 mb)
SSE 9.2 mph
(SSE 15 kph)
- 10SM
04:15
Overcast
25°F / -4°C 14°F / -10°C 63% 30.04 in
(1017 mb)
SSE 8.1 mph
(SSE 13 kph)
- 10SM
03:55
Overcast
23°F / -5°C 16°F / -9°C 74% 30.04 in
(1017 mb)
SE 8.1 mph
(SE 13 kph)
- 10SM
03:35
Overcast
23°F / -5°C 16°F / -9°C 74% 30.04 in
(1017 mb)
SE 9.2 mph
(SE 15 kph)
- 10SM
03:15
Overcast
23°F / -5°C 16°F / -9°C 74% 30.06 in
(1018 mb)
SE 4.6 mph
(SE 7 kph)
- 10SM
02:55
Overcast
23°F / -5°C 16°F / -9°C 74% 30.06 in
(1018 mb)
SE 9.2 mph
(SE 15 kph)
- 10SM
02:35
Overcast
23°F / -5°C 16°F / -9°C 74% 30.09 in
(1019 mb)
SE 6.9 mph
(SE 11 kph)
- 10SM
02:15
Overcast
23°F / -5°C 16°F / -9°C 74% 30.09 in
(1019 mb)
SE 5.8 mph
(SE 9 kph)
- 10SM
01:55
Overcast
23°F / -5°C 16°F / -9°C 74% 30.12 in
(1020 mb)
SE 6.9 mph
(SE 11 kph)
- 10SM
01:35
Overcast
23°F / -5°C 14°F / -10°C 68% 30.15 in
(1021 mb)
SSE 9.2 mph
(SSE 15 kph)
- 10SM
01:15
Overcast
23°F / -5°C 16°F / -9°C 74% 30.18 in
(1022 mb)
SSE 6.9 mph
(SSE 11 kph)
- 10SM
00:55
Overcast
23°F / -5°C 16°F / -9°C 74% 30.18 in
(1022 mb)
S 8.1 mph
(S 13 kph)
- 10SM
00:35
Overcast
23°F / -5°C 16°F / -9°C 74% 30.18 in
(1022 mb)
SSE 4.6 mph
(SSE 7 kph)
- 10SM
00:15
Overcast
23°F / -5°C 16°F / -9°C 74% 30.18 in
(1022 mb)
SSE 5.8 mph
(SSE 9 kph)
- 10SM
Time Weather Temperature Dewpoint Humidity Pressure Winds Precip Visibility


Weather for websites

WeatherForYou.com, LLC is not responsible for any damages or problems caused by this service. Current weather conditions are obtained from the closest station including government and personal stations which may have varying degrees of accuracy. Weather forecasts are derived from the NOAA NDFD. Like all things, this site belongs to Jesus Christ... He just trusts me to maintain it. If you have any questions or comments email webmaster@weatherforyou.com

Copyright © 2015, WeatherForYou.com LLC. All rights reserved.